Date,TemperatureHighF,TemperatureAvgF,TemperatureLowF,DewpointHighF,DewpointAvgF,DewpointLowF,HumidityHigh,HumidityAvg,HumidityLow,PressureMaxIn,PressureMinIn,WindSpeedMaxMPH,WindSpeedAvgMPH,GustSpeedMaxMPH,PrecipitationSumIn
2013-10-1,77.8,59.9,45.4,54.7,49.1,43.5,95,71,36,30.00,29.89,5,0,9,0.00
2013-10-2,77.0,61.1,49.7,53.1,47.6,41.2,91,64,36,30.01,29.92,9,1,13,0.00
2013-10-3,78.8,62.9,48.1,41.7,35.3,24.6,73,41,14,30.08,29.96,5,0,12,0.00
2013-10-4,84.8,71.1,61.9,31.5,28.5,24.5,29,21,12,30.07,30.00,4,0,16,0.00
2013-10-5,86.3,65.8,47.2,40.9,32.6,27.5,62,32,13,30.18,30.07,5,0,12,0.00
2013-10-6,85.2,64.4,48.0,43.4,35.6,31.8,60,37,16,30.11,29.99,5,0,13,0.00
2013-10-7,85.3,63.2,48.7,48.4,39.8,33.2,72,46,16,29.99,29.84,6,0,12,0.00
2013-10-8,78.4,59.4,48.9,50.3,45.7,42.9,86,64,31,29.91,29.70,5,0,14,0.00
2013-10-9,73.7,58.9,46.7,46.4,43.1,40.6,85,59,35,29.75,29.61,6,0,16,0.00
2013-10-10,71.9,55.8,46.4,51.5,45.2,40.2,91,69,41,30.00,29.74,12,2,25,0.00
2013-10-11,66.4,52.4,44.2,53.3,46.8,41.4,95,83,58,30.09,29.97,8,0,16,0.00
2013-10-12,69.2,52.9,41.0,52.3,45.2,39.0,95,77,52,30.01,29.87,5,0,13,0.00
2013-10-13,74.6,56.5,44.2,52.0,45.2,41.2,93,70,35,30.06,29.92,8,0,18,0.00
2013-10-14,80.7,58.5,43.0,47.5,41.3,36.9,91,59,22,30.11,29.99,6,0,16,0.00
2013-10-15,83.3,60.4,43.1,44.2,36.9,32.5,83,48,16,30.04,29.94,5,0,10,0.00
2013-10-16,82.0,60.8,44.0,40.9,36.0,33.3,72,44,18,30.08,29.99,6,0,13,0.00
2013-10-17,83.2,60.8,47.3,42.9,37.8,33.8,80,47,18,30.08,29.94,4,0,13,0.00
2013-10-18,77.9,55.3,41.4,50.1,43.3,39.0,94,69,33,30.05,29.97,8,0,10,0.00
2013-10-19,83.1,57.4,40.3,49.7,42.4,38.2,95,64,22,30.08,29.98,8,0,10,0.00
2013-10-20,77.6,53.4,39.7,51.4,43.2,37.6,95,72,37,30.02,29.90,8,0,10,0.00
2013-10-21,69.6,52.8,44.8,55.3,46.7,42.0,96,82,55,30.00,29.90,9,0,12,0.00
2013-10-22,74.7,53.2,43.8,53.7,45.9,41.5,95,79,46,30.02,29.91,5,0,10,0.00
2013-10-23,71.0,50.6,41.3,55.3,45.4,39.2,95,84,55,29.97,29.89,8,0,12,0.01
2013-10-24,62.7,51.5,46.2,53.0,47.1,43.4,96,86,65,30.10,29.97,5,0,10,0.01
2013-10-25,69.4,53.4,43.7,54.1,46.4,41.8,96,79,51,30.17,30.08,6,0,9,0.00
2013-10-26,79.3,56.0,42.7,52.8,45.2,40.8,96,72,36,30.14,30.00,8,0,9,0.01
2013-10-27,63.1,50.4,42.4,52.9,45.9,40.2,96,85,63,30.02,29.63,20,1,23,0.00
2013-10-28,65.5,52.1,42.9,48.2,43.4,39.6,93,74,49,29.81,29.65,10,0,13,0.00
2013-10-29,63.8,52.4,44.1,49.3,46.0,42.2,94,80,57,30.05,29.81,9,0,14,0.00
2013-10-30,67.3,50.5,39.4,50.1,42.6,37.8,96,77,49,30.15,30.04,5,0,14,0.00
2013-10-31,73.6,53.3,39.7,48.5,42.9,37.3,94,71,38,30.18,30.06,6,0,14,0.00